Regional Weather Roundup
Issued by NWS

Home | Current Version | Previous Version | Graphics & Text | Print | Product List | Glossary On
Versions: 1 2 3 4 5 6 7 8 9 10 11 12 13 14 15 16 17 18 19 20 21 22 23 24 25 26 27 28 29 30 31 32 33 34 35 36 37 38 39 40 41 42 43 44 45 46 47 48 49 50
000
ASUS45 KPSR 221310
RWRAZ

ARIZONA REGIONAL HOURLY WEATHER ROUNDUP
NATIONAL WEATHER SERVICE PHOENIX AZ
600 AM MST MON SEP 22 2014

NOTE: FAIR INDICATES FEW OR NO CLOUDS BELOW 12,000 FEET WITH NO
SIGNIFICANT WEATHER AND/OR OBSTRUCTIONS TO VISIBILITY.

AZZ001>003-036-221400-
NORTHWEST ARIZONA

CITY           SKY/WX    TMP DP  RH WIND       PRES   REMARKS
BULLHEAD CITY  CLEAR     75  45  33 CALM      29.92S
KINGMAN        CLEAR     63  41  44 S5        30.09R
$$

AZZ004>008-015-016-018-221400-
NORTH CENTRAL ARIZONA

CITY           SKY/WX    TMP DP  RH WIND       PRES   REMARKS
GRAND CANYON   CLEAR     38  37  97 NE3       30.32R
PRESCOTT       PTCLDY    55  41  59 S5        30.21R
FLAGSTAFF      PTCLDY    46  43  89 CALM      30.33S
PAYSON         PTCLDY    61  55  82 CALM      30.24R
PAGE           CLEAR     65  56  72 CALM      30.16R
$$

AZZ009>014-017-221400-
NORTHEAST ARIZONA

CITY           SKY/WX    TMP DP  RH WIND       PRES   REMARKS
WINSLOW        CLEAR     59  55  87 S6        30.22R
SAINT JOHNS    CLOUDY    62  58  86 CALM      30.25S
SHOW LOW       PTCLDY    57  55  94 S6        30.32S
$$

AZZ023-221400-
GREATER PHOENIX AREA

CITY           SKY/WX    TMP DP  RH WIND       PRES   REMARKS
PHOENIX        PTCLDY    81  57  43 E7        29.93R
BUCKEYE          N/A     72  57  60 N5        29.94R
GLENDALE       PTCLDY    79  57  47 CALM      29.95
LUKE AFB       CLEAR     75  58  55 N5        29.94R
DEER VALLEY    CLOUDY    75  55  49 CALM      29.96R
SCOTTSDALE     CLOUDY    77  59  53 CALM      29.97R
MESA-FALCON    MOCLDY    79  57  47 N6        29.95
MESA-GATEWAY   PTCLDY    79  63  57 E7        29.98R
CHANDLER       PTCLDY    77  64  65 CALM      29.95
$$

AZZ027-028-221400-
SOUTHWEST MARICOPA COUNTY AND PINAL COUNTY

CITY           SKY/WX    TMP DP  RH WIND       PRES   REMARKS
CASA GRANDE    CLEAR     73  55  53 CALM      29.97R
$$

AZZ503-504-507>509-221400-
SOUTHEAST ARIZONA

CITY           SKY/WX    TMP DP  RH WIND       PRES   REMARKS
TUCSON         CLEAR     76  63  64 E6        30.06R
DAVIS-MONTHAN  CLEAR     73  63  72 SE9       30.05R
RYAN FIELD       N/A     73  64  73 SE6       30.05
NOGALES        CLEAR     62  60  93 E5        30.13R
SIERRA VISTA   MOCLDY    63  61  94 CALM      30.19R
DOUGLAS        MOCLDY    65  63  93 NW5       30.16R
SAFFORD        MOCLDY    71  63  75 E13       30.11S
$$

AZZ020-021-025-026-031-221400-
SOUTHWEST ARIZONA

CITY           SKY/WX    TMP DP  RH WIND       PRES   REMARKS
YUMA           CLEAR     78  55  44 N3        29.87R
$$

CAZ031-033-041-043-047-048-061-221400-
SOUTHERN CALIFORNIA

CITY           SKY/WX    TMP DP  RH WIND       PRES   REMARKS
DOWNTOWN L.A.  CLEAR     63  60  90 CALM      29.95R
L.A. AIRPORT   PTCLDY    65  61  86 CALM      29.95S
SAN DIEGO      MOCLDY    69  61  75 CALM      29.96S
BURBANK        CLEAR     62  51  67 W3        29.96R
ONTARIO        CLEAR     63  57  81 CALM      29.96R
RIVERSIDE      CLEAR     62  57  83 CALM      29.96S
PALM SPRINGS   CLEAR     77  51  40 NW5       29.90R
EL CENTRO NAS  CLEAR     74  50  42 SE3       29.86R
IMPERIAL       CLEAR     75  50  41 CALM      29.85R
BLYTHE         CLEAR     72  47  40 N6        29.89R
NEEDLES        CLEAR     76  44  32 NW3       29.92R
$$

NVZ020-UTZ003-221400-
SOUTHERN NEVADA-UTAH

CITY           SKY/WX    TMP DP  RH WIND       PRES   REMARKS
LAS VEGAS      CLEAR     75  53  46 S7        29.97R
SALT LAKE CITY PTCLDY    61  56  83 W3        30.15R
$$

NMZ009-TXZ055-221400-
NEW MEXICO-WEST TEXAS

CITY           SKY/WX    TMP DP  RH WIND       PRES   REMARKS
ALBUQUERQUE    CLOUDY    66  56  70 S7        30.30R
EL PASO        LGT RAIN  65  63  93 NW9       30.19R
$$


........................KEY........................
SKY/WX - SKY CONDITION/WEATHER
TMP    - TEMPERATURE IN FAHRENHEIT
DP     - DEW POINT IN FAHRENHEIT
RH     - RELATIVE HUMIDITY IN PERCENT
WIND   - DIRECTION AND SPEED IN MILES PER HOUR (MPH)
VRB    - VARIABLE WIND DIRECTION
PRES   - MEAN SEA LEVEL PRESSURE IN INCHES OF MERCURY
         F - FALLING PRESSURE   R - RISING PRESSURE
         S - STEADY PRESSURE
VSB    - VISIBILITY IN MILES
HX     - HEAT INDEX IN FAHRENHEIT
WCI    - WIND CHILL INDEX IN FAHRENHEIT
TC     - TEMPERATURE IN CELSIUS WHICH IS ALSO KNOWN AS
         TEMPERATURE IN CENTIGRADE
AFB    - AIR FORCE BASE
         LUKE AFB IS LUKE AIR FORCE BASE
         DAVIS-MONTHAN IS DAVIS-MONTHAN AIR FORCE BASE
NAS    - NAVAL AIR STATION
         EL CENTRO NAS IS EL CENTRO NAVAL AIR STATION
N/A    - NOT AVAILABLE



USA.gov is the U.S. government's official web portal to all federal, state and local government web resources and services.